OPS 4682 DEB, 18670

Orbit data source: Space-Track

OPS 4682 DEB, 18670 is space debris in LEO originally from a launch on Sat, 03 Apr 1965 UTC launched from the Air Force Western Test Range (AFWTR). Debris objects in space refer to the collection of defunct objects orbiting the Earth. Examples of debris include non-operational satellites, rocket bodies, and fragments generated from explosions, collisions, or faulty payload assembly.

Loading next visibility...
Identifier
18670, 1965-027AG
Orbit
LEO
Country
Flag of USUS
Related business
Manufacturer
Unknown
Mission
Spacecraft
Bus & Motor
Unknown
Mass
Unknown
Launch date (UTC)
1965-04-03 (61 years ago)
Launch vehicle
Unknown
Launch site
Air Force Western Test Range (AFWTR)
Object type
Payload
Rocket body
Debris
Shape & HBR
Unknown shape, 0.1 m
Radar Cross Section
Small (<0.1 m²)

Expand to show TLE details & history
Last TLE update: 1 day ago

TLE from 1 day ago
0 OPS 4682 DEB
1 18670U 65027AG  26103.12985858  .00000159  00000-0  52321-3 0  9991
2 18670  90.2405 354.9000 0023844 312.3720  47.5381 12.97222782654335
Epoch: 2026-04-13T03:06Z
TLE epoch observation values (Epoch: 2026-04-13T03:06:59.781Z)
Latitude
-0.00008°
Longitude
106.82603°
Altitude
1,263.572 km
Speed
7.229 km/s
True Right ascension
23h 39m 36s
True Declination
0° 00' 00"
Sunlit
Object was in daylight at epoch
Visualization orbit readout
Latitude
Unknown
Longitude
Unknown
Altitude
Unknown
Speed
Unknown
Apparent Right ascension
Unknown
Apparent Declination
Unknown
Sunlit
N/A
Visualization observer readout
Local Sidereal Time
19:59:45
Azimuth
Unknown
Elevation
Unknown
Doppler factor
Unknown
Orbital elements
Apogee altitude
1,288.355 km
Perigee altitude
1,251.882 km
Semi-major axis
7,648.255 km
Eccentricity
0.00238
Inclination
90.2405°
RAAN
354.9°
Arg. of periapsis
312.372°
True anomaly
47.74008°
Mean anomaly
47.5381°
Eccentric anomaly
47.63905°
Mean motion
3.24489 °/min
Orbital period
110.94 mins
BSTAR
0.00052321
Loading maneuver chart data...
Computing Atmospheric mass density...
Loading historical data...
Loading historical data...
Loading historical data...
Loading historical data...
Loading historical data...
Loading historical data...
Loading historical data...

Documentation

Showing up to 5 results
|